Total_Precipitation_Accumulation
0.10 0.11 0.12 0.11 0.08 0.11 0.23 0.32 0.30 0.34 0.42 0.40 0.32 0.27 0.28 0.31 0.32 0.45 0.31 0.30 0.24 0.22 0.43 0.51 0.44 0.43 0.40 0.34 0.29 0.26 0.24 0.25 0.23 0.18 0.18 0.26 0.35 0.39 0.36 0.30 0.31 0.32 0.26
0.22 0.25 0.22 0.26 0.23 0.26 0.34 0.43 0.47 0.61 0.60 0.59 0.46 0.42 0.37 0.36 0.40 0.46 0.35 0.34 0.24 0.18 0.26 0.34 0.40 0.40 0.39 0.37 0.26 0.21 0.18 0.19 0.18 0.13 0.12 0.16 0.25 0.34 0.31 0.29 0.28 0.28 0.24
0.41 0.47 0.41 0.39 0.49 0.57 0.60 0.63 0.70 0.80 0.76 0.73 0.58 0.56 0.51 0.45 0.41 0.40 0.35 0.34 0.29 0.22 0.19 0.23 0.32 0.33 0.34 0.36 0.30 0.25 0.18 0.14 0.12 0.10 0.09 0.08 0.11 0.17 0.17 0.19 0.21 0.21 0.19
0.61 0.63 0.49 0.46 0.76 0.83 0.83 0.92 0.94 0.99 1.09 1.08 0.86 0.73 0.66 0.57 0.42 0.37 0.34 0.34 0.33 0.22 0.18 0.22 0.25 0.29 0.36 0.40 0.38 0.38 0.29 0.18 0.12 0.09 0.07 0.05 0.07 0.12 0.10 0.09 0.12 0.12 0.10
0.72 0.81 0.62 0.63 0.94 1.05 1.05 1.05 1.20 1.35 1.32 1.33 1.13 0.91 0.73 0.58 0.42 0.38 0.34 0.29 0.27 0.24 0.22 0.20 0.14 0.21 0.39 0.51 0.48 0.45 0.40 0.30 0.20 0.15 0.13 0.11 0.10 0.13 0.11 0.07 0.08 0.06 0.05
0.78 0.99 0.78 0.83 1.11 1.14 1.10 1.23 1.34 1.46 1.36 1.43 1.30 0.90 0.68 0.49 0.43 0.33 0.28 0.23 0.16 0.14 0.16 0.22 0.27 0.26 0.36 0.44 0.45 0.46 0.50 0.45 0.32 0.22 0.22 0.20 0.16 0.15 0.11 0.08 0.07 0.06 0.04
0.84 1.11 0.96 1.03 1.13 1.08 1.04 1.21 1.32 1.26 1.16 1.53 1.46 0.89 0.51 0.37 0.27 0.17 0.18 0.16 0.12 0.09 0.12 0.20 0.28 0.30 0.29 0.30 0.35 0.36 0.44 0.50 0.45 0.34 0.29 0.25 0.22 0.17 0.15 0.13 0.10 0.09 0.07
0.95 1.07 1.11 1.06 1.09 1.05 0.92 0.95 1.12 1.05 0.84 1.23 1.37 1.22 0.71 0.37 0.23 0.13 0.13 0.13 0.15 0.16 0.17 0.18 0.21 0.30 0.30 0.31 0.43 0.29 0.31 0.49 0.56 0.51 0.40 0.28 0.22 0.18 0.17 0.18 0.14 0.13 0.10
1.12 1.17 1.09 1.05 1.02 1.02 0.86 0.80 0.95 1.00 0.83 0.92 1.24 1.47 1.04 0.53 0.37 0.19 0.21 0.25 0.31 0.36 0.35 0.31 0.29 0.30 0.35 0.43 0.54 0.60 0.36 0.37 0.51 0.68 0.62 0.42 0.24 0.16 0.16 0.20 0.24 0.19 0.15
1.30 1.20 1.04 0.91 0.81 0.81 0.74 0.72 0.83 0.91 0.92 0.76 0.86 1.01 1.01 0.90 0.74 0.40 0.26 0.32 0.47 0.50 0.47 0.42 0.36 0.35 0.41 0.53 0.64 0.76 0.53 0.38 0.39 0.59 0.69 0.63 0.45 0.28 0.21 0.28 0.46 0.45 0.31
1.22 1.09 0.96 0.86 0.79 0.73 0.67 0.65 0.68 0.71 0.74 0.68 0.69 0.72 0.82 0.86 0.81 0.67 0.45 0.46 0.47 0.38 0.36 0.33 0.35 0.44 0.53 0.65 0.80 0.84 0.75 0.66 0.60 0.53 0.51 0.51 0.52 0.45 0.40 0.47 0.71 0.88 0.77
0.84 0.76 0.67 0.59 0.58 0.57 0.58 0.57 0.57 0.58 0.59 0.61 0.63 0.65 0.72 0.80 0.89 0.91 0.75 0.64 0.56 0.48 0.44 0.40 0.41 0.47 0.54 0.61 0.70 0.78 0.73 0.72 0.65 0.60 0.52 0.45 0.42 0.47 0.57 0.74 0.99 1.20 1.28
0.44 0.39 0.36 0.36 0.36 0.36 0.37 0.40 0.40 0.42 0.46 0.50 0.54 0.62 0.74 0.84 0.91 0.95 0.86 0.70 0.63 0.59 0.62 0.56 0.45 0.51 0.50 0.57 0.62 0.55 0.43 0.45 0.44 0.41 0.40 0.40 0.47 0.54 0.57 0.65 0.84 1.08 1.27
0.34 0.30 0.29 0.31 0.32 0.32 0.31 0.34 0.35 0.34 0.37 0.41 0.42 0.54 0.64 0.68 0.74 0.81 0.84 0.79 0.70 0.69 0.78 0.73 0.54 0.47 0.47 0.50 0.47 0.37 0.35 0.28 0.21 0.16 0.15 0.15 0.20 0.31 0.45 0.60 0.74 0.83 0.95
0.37 0.36 0.38 0.41 0.42 0.44 0.43 0.40 0.39 0.37 0.42 0.47 0.49 0.54 0.61 0.63 0.64 0.68 0.75 0.80 0.79 0.74 0.77 0.76 0.54 0.41 0.39 0.40 0.41 0.38 0.43 0.28 0.12 0.08 0.07 0.08 0.08 0.11 0.19 0.35 0.53 0.66 0.86
0.40 0.42 0.44 0.47 0.48 0.46 0.43 0.39 0.39 0.40 0.47 0.52 0.55 0.63 0.67 0.66 0.62 0.67 0.73 0.81 0.86 0.82 0.73 0.61 0.47 0.38 0.36 0.37 0.35 0.29 0.28 0.22 0.12 0.08 0.08 0.08 0.08 0.10 0.15 0.27 0.41 0.54 0.69
0.38 0.42 0.45 0.46 0.46 0.46 0.44 0.45 0.45 0.48 0.51 0.54 0.55 0.60 0.61 0.59 0.61 0.64 0.68 0.71 0.74 0.77 0.66 0.53 0.43 0.41 0.41 0.46 0.42 0.32 0.24 0.20 0.16 0.11 0.08 0.06 0.07 0.12 0.19 0.26 0.36 0.45 0.51
0.44 0.45 0.47 0.48 0.47 0.49 0.55 0.59 0.58 0.62 0.64 0.63 0.61 0.61 0.57 0.51 0.52 0.51 0.55 0.57 0.60 0.66 0.57 0.46 0.42 0.40 0.43 0.48 0.48 0.40 0.31 0.24 0.22 0.14 0.09 0.07 0.08 0.09 0.12 0.15 0.24 0.37 0.47
0.48 0.50 0.54 0.60 0.63 0.64 0.63 0.67 0.70 0.71 0.65 0.60 0.58 0.54 0.50 0.47 0.45 0.42 0.42 0.39 0.38 0.44 0.45 0.43 0.45 0.45 0.44 0.41 0.41 0.42 0.39 0.37 0.29 0.20 0.13 0.09 0.09 0.10 0.10 0.11 0.16 0.25 0.38
0.38 0.43 0.51 0.61 0.70 0.75 0.78 0.73 0.65 0.62 0.56 0.52 0.48 0.44 0.44 0.44 0.42 0.39 0.39 0.33 0.29 0.33 0.39 0.38 0.40 0.42 0.42 0.39 0.39 0.43 0.45 0.48 0.39 0.29 0.24 0.19 0.16 0.12 0.12 0.10 0.11 0.16 0.27
0.35 0.44 0.52 0.59 0.71 0.78 0.76 0.72 0.61 0.56 0.53 0.45 0.39 0.36 0.37 0.35 0.35 0.36 0.33 0.28 0.23 0.23 0.23 0.26 0.28 0.28 0.29 0.30 0.31 0.34 0.43 0.54 0.50 0.39 0.36 0.36 0.34 0.30 0.26 0.20 0.12 0.10 0.17
0.25 0.31 0.35 0.41 0.45 0.49 0.51 0.47 0.41 0.37 0.35 0.31 0.29 0.28 0.27 0.25 0.29 0.30 0.26 0.23 0.19 0.15 0.13 0.16 0.17 0.20 0.22 0.23 0.24 0.32 0.44 0.50 0.58 0.59 0.55 0.54 0.51 0.47 0.40 0.30 0.20 0.12 0.10
0.16 0.19 0.20 0.22 0.24 0.26 0.23 0.19 0.19 0.19 0.20 0.20 0.19 0.19 0.17 0.18 0.22 0.23 0.20 0.15 0.14 0.12 0.10 0.13 0.13 0.12 0.13 0.16 0.19 0.29 0.45 0.61 0.71 0.76 0.73 0.72 0.60 0.53 0.49 0.41 0.30 0.18 0.13
0.16 0.17 0.17 0.16 0.17 0.18 0.14 0.11 0.10 0.09 0.10 0.12 0.13 0.13 0.14 0.14 0.16 0.16 0.13 0.10 0.09 0.09 0.10 0.10 0.09 0.08 0.07 0.09 0.13 0.17 0.25 0.40 0.59 0.70 0.76 0.86 0.84 0.75 0.70 0.62 0.51 0.33 0.22
0.21 0.20 0.19 0.17 0.17 0.18 0.13 0.09 0.06 0.07 0.09 0.09 0.10 0.11 0.10 0.10 0.13 0.11 0.08 0.08 0.08 0.07 0.07 0.07 0.05 0.04 0.03 0.02 0.03 0.04 0.04 0.07 0.16 0.26 0.32 0.51 0.70 0.79 0.85 0.84 0.73 0.58 0.42
0.29 0.26 0.23 0.23 0.24 0.26 0.22 0.13 0.08 0.07 0.09 0.10 0.11 0.12 0.12 0.10 0.09 0.07 0.07 0.07 0.06 0.04 0.04 0.04 0.02 0.01 0.01 0.01 0.00 0.01 0.02 0.02 0.04 0.08 0.09 0.16 0.28 0.41 0.58 0.66 0.67 0.64 0.58